FW0579 Weather Reports


Display with metric or nautical units.
time (UTC)temp
F
wind
direction
speed
MPH
gust
MPH
rain 1hr
in
rain 24hr
in
rain mn
in
humidity
%
barometer
mb
20260901164552 67 360 3.0 10.0 0.00 0.00 0.00 62 1015.8
20260901163042 66 225 5.0 12.0 0.00 0.00 0.00 63 1015.6
20260901161637 65 226 3.0 7.0 0.00 0.00 0.00 67 1015.5
20260901160032 63 175 1.0 3.0 0.00 0.00 0.00 71 1015.4
20260901154528 61 206 1.0 5.0 0.00 0.00 0.00 76 1015.3
20260901153035 60 129 0.0 3.0 0.00 0.00 0.00 81 1015.2
20260901151522 58 360 1.0 3.0 0.00 0.00 0.00 85 1014.9
20260901150019 56 360 0.0 3.0 0.00 0.00 0.00 87 1014.8
20260901144525 55 107 0.0 4.0 0.00 0.00 0.00 87 1014.7
20260901143011 54 105 2.0 4.0 0.00 0.00 0.00 88 1014.5
20260901141510 53 98 1.0 4.0 0.00 0.00 0.00 87 1014.3
20260901140004 52 73 1.0 4.0 0.00 0.00 0.00 87 1013.8
20260901134603 52 131 0.0 0.0 0.00 0.00 0.00 87 1013.6
20260901133102 52 131 0.0 0.0 0.00 0.00 0.00 87 1013.6
20260901131600 51 132 1.0 3.0 0.00 0.00 0.00 86 1013.4
20260901130057 51 135 1.0 3.0 0.00 0.00 0.00 86 1013.5
20260901124658 51 136 1.0 3.0 0.00 0.00 0.00 86 1013.4
20260901123058 51 184 0.0 0.0 0.00 0.00 0.00 85 1013.2
20260901121610 51 185 1.0 3.0 0.00 0.00 0.00 85 1013.3
20260901120104 52 206 0.0 0.0 0.00 0.00 0.00 85 1013.4
20260901114600 52 207 0.0 0.0 0.00 0.00 0.00 85 1013.4
20260901113050 52 237 0.0 0.0 0.00 0.00 0.00 84 1013.2
20260901111552 52 360 0.0 0.0 0.00 0.00 0.00 84 1013.1
20260901110048 52 360 0.0 0.0 0.00 0.00 0.00 84 1012.9
20260901104545 53 360 0.0 0.0 0.00 0.00 0.00 84 1012.8
20260901103042 53 360 0.0 0.0 0.00 0.00 0.00 83 1012.9
20260901101540 53 360 0.0 0.0 0.00 0.00 0.00 83 1012.8
20260901100039 54 360 0.0 0.0 0.00 0.00 0.00 83 1012.9
20260901094537 54 360 0.0 0.0 0.00 0.00 0.00 83 1013.0
20260901093043 54 360 0.0 2.0 0.00 0.00 0.00 83 1013.0
20260901091554 54 360 0.0 0.0 0.00 0.00 0.00 82 1013.0
20260901090031 55 360 0.0 0.0 0.00 0.00 0.00 82 1013.1
20260901084533 55 360 0.0 0.0 0.00 0.00 0.00 82 1013.1
20260901083032 55 360 0.0 0.0 0.00 0.00 0.00 81 1013.1
20260901081529 56 360 0.0 0.0 0.00 0.00 0.00 80 1013.2
20260901080027 56 360 0.0 0.0 0.00 0.00 0.00 80 1013.1
20260901074527 57 360 0.0 0.0 0.00 0.00 0.00 79 1013.1
20260901073024 57 360 0.0 0.0 0.00 0.00 0.00 78 1013.1
20260901071520 58 360 0.0 0.0 0.00 0.00 0.00 77 1013.0
20260901070026 58 360 0.0 0.0 0.00 0.00 0.00 78 1013.0
20260901064517 58 360 0.0 0.0 0.00 0.00 0.00 78 1013.0
20260901063015 59 360 0.0 0.0 0.00 0.00 0.00 77 1013.2
20260901061513 59 360 0.0 0.0 0.00 0.00 0.00 77 1013.1
20260901060010 59 360 1.0 6.0 0.00 0.00 0.00 76 1013.0
20260901054511 59 360 0.0 5.0 0.00 0.00 0.00 76 1012.8
20260901053011 60 360 2.0 8.0 0.00 0.00 0.00 76 1012.7
20260901051508 60 360 3.0 6.0 0.00 0.00 0.00 75 1012.7
20260901050004 61 360 4.0 8.0 0.00 0.00 0.00 74 1012.7
20260901044505 61 360 3.0 9.0 0.00 0.00 0.00 73 1012.6
20260901043121 61 360 3.0 9.0 0.00 0.00 0.00 73 1012.6
20260901041611 61 360 5.0 10.0 0.00 0.00 0.00 72 1012.5
20260901040104 62 360 6.0 13.0 0.00 0.00 0.00 72 1012.1
20260901034606 62 360 7.0 13.0 0.00 0.00 0.00 71 1012.0
20260901033108 63 360 5.0 13.0 0.00 0.00 0.00 70 1011.8
20260901031559 63 360 6.0 17.0 0.00 0.00 0.00 69 1011.4
20260901030100 64 360 8.0 12.0 0.00 0.00 0.00 69 1011.4
20260901024606 64 360 6.0 15.0 0.00 0.00 0.00 67 1011.2
20260901023059 65 360 7.0 14.0 0.00 0.00 0.00 66 1011.2
20260901021606 66 360 7.0 14.0 0.00 0.00 0.00 65 1011.1
20260901020058 68 360 8.0 15.0 0.00 0.00 0.00 62 1011.0
20260901014603 70 240 8.0 14.0 0.00 0.00 0.00 59 1010.9
20260901013058 71 237 7.0 16.0 0.00 0.00 0.00 57 1010.8
20260901011600 72 252 7.0 12.0 0.00 0.00 0.00 55 1010.5
20260901010100 73 245 8.0 13.0 0.00 0.00 0.00 54 1010.4
20260901004556 74 227 6.0 13.0 0.00 0.00 0.00 52 1010.5
20260901003101 76 211 5.0 12.0 0.00 0.00 0.00 50 1010.7
20260901001559 77 248 7.0 15.0 0.00 0.00 0.00 49 1010.5
20260901000055 77 250 8.0 14.0 0.00 0.00 0.00 48 1010.5
20260831234557 78 286 4.0 12.0 0.00 0.00 0.00 48 1010.6
20260831233051 78 340 6.0 12.0 0.00 0.00 0.00 46 1010.6
20260831231551 78 232 7.0 13.0 0.00 0.00 0.00 47 1010.7
20260831230050 79 243 5.0 10.0 0.00 0.00 0.00 47 1010.8
20260831224649 78 214 5.0 12.0 0.00 0.00 0.00 47 1010.9
20260831223049 79 224 6.0 14.0 0.00 0.00 0.00 46 1010.9
20260831221548 80 259 2.0 10.0 0.00 0.00 0.00 45 1010.9
20260831220055 80 224 3.0 10.0 0.00 0.00 0.00 43 1011.0
20260831214548 79 213 6.0 12.0 0.00 0.00 0.00 44 1011.3
20260831213047 80 232 5.0 11.0 0.00 0.00 0.00 45 1011.6
20260831211544 80 234 3.0 11.0 0.00 0.00 0.00 44 1011.8
20260831210043 83 225 3.0 7.0 0.00 0.00 0.00 41 1011.8
20260831204553 81 207 1.0 6.0 0.00 0.00 0.00 45 1011.7
20260831203055 80 229 1.0 5.0 0.00 0.00 0.00 45 1011.7
20260831201535 79 259 1.0 7.0 0.00 0.00 0.00 47 1011.9
20260831200038 77 176 1.0 5.0 0.00 0.00 0.00 50 1012.1
20260831194529 75 223 2.0 7.0 0.00 0.00 0.00 51 1012.3
20260831193028 74 217 2.0 7.0 0.00 0.00 0.00 51 1012.4
20260831191524 72 232 4.0 10.0 0.00 0.00 0.00 54 1012.7
20260831190024 72 293 3.0 10.0 0.00 0.00 0.00 57 1012.7
20260831184520 71 227 5.0 11.0 0.00 0.00 0.00 58 1012.6
20260831183018 70 198 2.0 9.0 0.00 0.00 0.00 62 1012.7
20260831181515 69 242 1.0 6.0 0.00 0.00 0.00 63 1012.6
20260831180017 68 254 4.0 8.0 0.00 0.00 0.00 64 1012.7
20260831174511 68 294 1.0 7.0 0.00 0.00 0.00 64 1012.7
20260831173010 67 254 3.0 8.0 0.00 0.00 0.00 66 1012.5
20260831171509 67 235 1.0 5.0 0.00 0.00 0.00 67 1012.4
20260831170011 66 275 2.0 4.0 0.00 0.00 0.00 68 1012.3